Zurück zum Katalog

COSMOS 1561

AktivNavigationLEO
NORAD 15000·PAYLOAD·🇷🇺 Russia

Gestartet May 28, 1984 von Plesetsk Cosmodrome

Loading…

Nächste Überflüge (nächste 24 Stunden)

TLE

AktuellSource: Space-Track

Epoche: Sep 14, 2026, 08:33 UTC

1 15000U 84052C   26257.35690025 -.00000018  00000-0 -17038-4 0  9991
2 15000  74.0091 272.7580 0014350 121.1754 250.9484 12.47992545926865

Verfolge COSMOS 1561 in Echtzeit mit AllMySat

Download on the App Store